Location: Camps Bay
(33.9517°S, 18.3844°E)
Time: 22:06:38
(UTC+00:00)

MOZ.5/SAFIR/RUBIN 5/SL-8 - Pass Details

Date: 18 January 2020
Orbit: 678 x 706 km, 98.1° (Epoch: 17 February)

Event Time Altitude Azimuth Distance (km) Brightness Sun altitude
Rises 01:36:51 0° 175° (S) 3,132 8.0 -23.4°
Reaches altitude 10° 01:39:12 10° 181° (S) 2,204 7.0 -23.1°
Maximum altitude 01:43:49 47° 253° (WSW) 945 4.2 -22.4°
Enters shadow 01:44:10 46° 267° (W) 956 4.2 -22.4°
